FW7211 Weather Reports


time (UTC)temp
F
wind
direction
speed
knots
gust
knots
rain 1hr
in
rain 24hr
in
rain mn
in
humidity
%
barometer
mb
20260507070230 56 139 2.6 3.5 0.00 0.00 0.00 94
20260507065727 56 95 1.7 5.2 0.00 0.00 0.00 94
20260507065223 56 102 3.5 4.3 0.00 0.00 0.00 95
20260507064720 56 135 3.5 5.2 0.00 0.00 0.00 94
20260507064215 56 111 3.5 3.5 0.00 0.00 0.00 95
20260507063711 56 106 1.7 4.3 0.00 0.00 0.00 94
20260507063208 56 131 0.9 5.2 0.00 0.00 0.00 95
20260507062705 56 59 1.7 3.5 0.00 0.00 0.00 95
20260507062202 57 100 1.7 2.6 0.00 0.00 0.00 96
20260507061700 57 114 1.7 4.3 0.00 0.00 0.00 96
20260507061158 57 147 3.5 4.3 0.00 0.00 0.00 96
20260507060656 58 171 8.7 9.6 0.00 0.00 0.00 96
20260507060152 58 114 1.7 2.6 0.00 0.00 0.00 96
20260507055648 58 160 3.5 7.8 0.00 0.00 0.00 96
20260507055144 58 113 1.7 1.7 0.00 0.00 0.00 96
20260507054640 58 115 0.9 1.7 0.00 0.00 0.00 96
20260507054137 59 89 0.9 1.7 0.00 0.00 0.00 96
20260507053635 59 73 1.7 1.7 0.00 0.00 0.00 95
20260507053133 59 79 1.7 3.5 0.00 0.00 0.00 94
20260507052631 60 75 0.0 2.6 0.00 0.00 0.00 93
20260507052127 60 125 5.2 5.2 0.00 0.00 0.00 92
20260507051624 60 192 2.6 3.5 0.00 0.00 0.00 91
20260507051121 62 162 1.7 3.5 0.00 0.00 0.00 92
20260507050617 62 85 0.9 3.5 0.00 0.00 0.00 90
20260507050109 63 60 1.7 1.7 0.00 0.00 0.00 88
20260507045605 64 148 0.0 0.9 0.00 0.00 0.00 86
20260507045103 64 86 2.6 6.1 0.00 0.00 0.00 82
20260507044559 64 149 3.5 6.1 0.00 0.00 0.00 82
20260507044056 64 120 0.9 3.5 0.00 0.00 0.00 82
20260507043552 64 142 2.6 2.6 0.00 0.00 0.00 82
20260507043049 64 131 1.7 4.3 0.00 0.00 0.00 81
20260507042545 64 158 0.9 2.6 0.00 0.00 0.00 80
20260507042040 64 148 1.7 2.6 0.00 0.00 0.00 80
20260507041538 65 114 0.0 1.7 0.00 0.00 0.00 80
20260507041035 65 154 1.7 3.5 0.00 0.00 0.00 78
20260507040531 65 150 0.9 3.5 0.00 0.00 0.00 79
20260507040027 65 173 2.6 3.5 0.00 0.00 0.00 78
20260507035524 65 137 2.6 4.3 0.00 0.00 0.00 78
20260507035020 65 147 0.9 5.2 0.00 0.00 0.00 78
20260507034517 65 159 2.6 4.3 0.00 0.00 0.00 81
20260507034015 65 131 3.5 7.0 0.00 0.00 0.00 83
20260507033513 65 138 3.5 3.5 0.00 0.00 0.00 85
20260507033010 65 140 3.5 7.8 0.00 0.00 0.00 87
20260507032506 65 157 3.5 5.2 0.00 0.00 0.00 93
20260507032003 64 113 0.0 0.9 0.00 0.00 0.00 95
20260507031459 64 89 0.0 0.9 0.00 0.00 0.00 95
20260507030956 65 89 0.0 0.9 0.00 0.00 0.00 95
20260507030453 64 89 0.0 1.7 0.00 0.00 0.00 94
20260507025950 64 124 1.7 2.6 0.00 0.00 0.00 95
20260507025447 64 173 0.0 1.7 0.00 0.00 0.00 95
20260507024945 64 136 0.9 1.7 0.00 0.00 0.00 96
20260507024442 64 62 0.9 1.7 0.00 0.00 0.00 95
20260507023938 63 63 0.9 1.7 0.00 0.00 0.00 95
20260507023435 63 67 1.7 1.7 0.00 0.00 0.00 95
20260507022932 64 109 1.7 1.7 0.00 0.00 0.00 95
20260507022429 63 89 0.9 0.9 0.00 0.00 0.00 95
20260507021925 63 62 1.7 1.7 0.00 0.00 0.00 95
20260507021420 64 67 0.9 1.7 0.00 0.00 0.00 95
20260507020918 64 72 0.9 1.7 0.00 0.00 0.00 95
20260507020415 64 76 0.9 1.7 0.00 0.00 0.00 95
20260507015912 64 106 1.7 1.7 0.00 0.00 0.00 95
20260507015410 64 79 0.9 1.7 0.00 0.00 0.00 94
20260507014907 64 57 0.9 1.7 0.00 0.00 0.00 94
20260507014403 64 71 0.9 1.7 0.00 0.00 0.00 94
20260507013859 64 52 1.7 1.7 0.00 0.00 0.00 94
20260507013356 64 55 1.7 1.7 0.00 0.00 0.00 94
20260507012854 64 63 1.7 1.7 0.00 0.00 0.00 94
20260507012349 64 61 1.7 1.7 0.00 0.00 0.00 93
20260507011846 64 65 0.9 1.7 0.00 0.00 0.00 93
20260507011344 64 81 1.7 1.7 0.00 0.00 0.00 92
20260507010838 64 53 1.7 1.7 0.00 0.00 0.00 92
20260507010334 64 93 0.9 1.7 0.00 0.00 0.00 93
20260507005831 65 59 0.9 1.7 0.00 0.00 0.00 92
20260507005327 65 89 0.0 0.9 0.00 0.00 0.00 92
20260507004819 65 89 0.0 1.7 0.00 0.00 0.00 92
20260507004316 65 87 0.9 1.7 0.00 0.00 0.00 91
20260507003813 65 52 1.7 1.7 0.00 0.00 0.00 92
20260507003308 65 75 0.9 0.9 0.00 0.00 0.00 91
20260507002803 65 75 0.9 1.7 0.00 0.00 0.00 91
20260507002259 66 40 1.7 1.7 0.00 0.00 0.00 91
20260507001751 66 49 1.7 1.7 0.00 0.00 0.00 90
20260507001249 66 45 1.7 1.7 0.00 0.00 0.00 90
20260507000745 67 54 0.9 1.7 0.00 0.00 0.00 89
20260507000240 67 53 0.9 1.7 0.00 0.00 0.00 88
20260506235738 67 49 1.7 1.7 0.00 0.00 0.00 87
20260506235233 67 62 0.9 1.7 0.00 0.00 0.00 88
20260506234730 67 69 0.0 1.7 0.00 0.00 0.00 87
20260506234227 67 54 1.7 1.7 0.00 0.00 0.00 88
20260506233725 67 47 0.0 1.7 0.00 0.00 0.00 86
20260506233221 68 57 0.9 0.9 0.00 0.00 0.00 85
20260506232718 68 44 0.0 0.9 0.00 0.00 0.00 85
20260506232212 68 60 0.9 0.9 0.00 0.00 0.00 85
20260506231710 68 89 0.0 1.7 0.00 0.00 0.00 85
20260506231209 68 73 0.0 0.9 0.00 0.00 0.00 86
20260506230704 68 69 0.0 1.7 0.00 0.00 0.00 84
20260506230201 68 134 1.7 2.6 0.00 0.00 0.00 84
20260506225658 68 80 0.0 0.9 0.00 0.00 0.00 84
20260506225154 69 89 0.0 1.7 0.00 0.00 0.00 85
20260506224651 69 77 0.9 1.7 0.00 0.00 0.00 84
20260506224148 69 89 0.0 0.9 0.00 0.00 0.00 83
20260506223645 69 66 0.0 0.9 0.00 0.00 0.00 83
20260506223140 69 44 1.7 2.6 0.00 0.00 0.00 82
20260506222638 69 150 1.7 2.6 0.00 0.00 0.00 82
20260506222133 69 41 0.9 1.7 0.00 0.00 0.00 83
20260506221632 69 97 0.9 0.9 0.00 0.00 0.00 82
20260506221130 69 58 1.7 1.7 0.00 0.00 0.00 82
20260506220626 69 42 0.0 0.9 0.00 0.00 0.00 81
20260506220121 69 193 1.7 2.6 0.00 0.00 0.00 82
20260506215618 70 76 0.0 1.7 0.00 0.00 0.00 82
20260506215113 70 50 0.0 1.7 0.00 0.00 0.00 81
20260506214611 70 86 0.0 1.7 0.00 0.00 0.00 81
20260506214108 70 130 0.0 1.7 0.00 0.00 0.00 80
20260506213606 70 162 0.0 1.7 0.00 0.00 0.00 81
20260506213103 70 80 0.9 1.7 0.00 0.00 0.00 81
20260506212600 70 64 0.9 1.7 0.00 0.00 0.00 81
20260506212055 70 118 0.0 1.7 0.00 0.00 0.00 81
20260506211551 70 196 0.0 1.7 0.00 0.00 0.00 81
20260506211048 70 167 2.6 2.6 0.00 0.00 0.00 80
20260506210544 70 109 0.9 1.7 0.00 0.00 0.00 81
20260506210041 70 193 1.7 2.6 0.00 0.00 0.00 80
20260506205538 70 118 1.7 2.6 0.00 0.00 0.00 81
20260506205033 70 148 0.9 3.5 0.00 0.00 0.00 81
20260506204532 70 24 0.0 1.7 0.00 0.00 0.00 81
20260506204028 70 140 3.5 3.5 0.00 0.00 0.00 80
20260506203527 70 174 1.7 3.5 0.00 0.00 0.00 79
20260506203023 70 173 2.6 2.6 0.00 0.00 0.00 79
20260506202520 70 100 1.7 1.7 0.00 0.00 0.00 82
20260506202016 70 184 2.6 7.0 0.00 0.00 0.00 80
20260506201514 71 100 0.0 2.6 0.00 0.00 0.00 78
20260506201010 70 85 1.7 3.5 0.00 0.00 0.00 80
20260506200507 70 19 0.9 1.7 0.00 0.00 0.00 81
20260506200003 70 215 0.0 3.5 0.00 0.00 0.00 80
20260506195500 70 66 1.7 1.7 0.00 0.00 0.00 82
20260506194956 70 89 0.0 1.7 0.00 0.00 0.00 82
20260506194454 70 42 1.7 1.7 0.00 0.00 0.00 82
20260506193945 71 64 0.9 1.7 0.00 0.00 0.00 82
20260506193442 70 126 3.5 3.5 0.00 0.00 0.00 80
20260506192939 70 33 1.7 1.7 0.00 0.00 0.00 82
20260506192436 69 19 1.7 2.6 0.00 0.00 0.00 82
20260506191932 69 62 0.0 1.7 0.00 0.00 0.00 83
20260506191429 69 68 1.7 1.7 0.00 0.00 0.00 83
20260506190925 69 98 0.9 2.6 0.00 0.00 0.00 82
20260506190421 69 119 0.0 2.6 0.00 0.00 0.00 83
20260506185913 69 15 0.0 2.6 0.00 0.00 0.00 83
20260506185410 68 119 0.9 1.7 0.00 0.00 0.00 84
20260506184908 68 345 0.9 2.6 0.00 0.00 0.00 83
20260506184404 68 103 0.0 3.5 0.00 0.00 0.00 83
20260506183902 68 55 1.7 4.3 0.00 0.00 0.00 84
20260506183357 69 48 1.7 2.6 0.00 0.00 0.00 84
20260506182854 68 67 1.7 5.2 0.00 0.00 0.00 84
20260506182351 68 350 1.7 4.3 0.00 0.00 0.00 83
20260506181848 68 153 2.6 6.1 0.00 0.00 0.00 82
20260506181346 68 119 0.0 1.7 0.00 0.00 0.00 85
20260506180843 68 96 1.7 3.5 0.00 0.00 0.00 86
20260506180339 67 179 3.5 8.7 0.00 0.00 0.00 83
20260506175836 67 27 1.7 2.6 0.00 0.00 0.00 87
20260506175332 67 10 1.7 2.6 0.00 0.00 0.00 87
20260506174830 66 57 1.7 1.7 0.00 0.00 0.00 87
20260506174327 66 75 1.7 2.6 0.00 0.00 0.00 87
20260506173825 66 80 0.9 4.3 0.00 0.00 0.00 88
20260506173321 66 38 3.5 3.5 0.00 0.00 0.00 88
20260506172818 66 103 1.7 2.6 0.00 0.00 0.00 89
20260506172315 66 148 1.7 3.5 0.00 0.00 0.00 90
20260506171812 65 182 2.6 3.5 0.00 0.00 0.00 90
20260506171309 65 30 1.7 2.6 0.00 0.00 0.00 91
20260506170807 65 76 0.9 2.6 0.00 0.00 0.00 91
20260506170303 64 92 2.6 5.2 0.00 0.00 0.00 92
20260506165802 64 45 2.6 2.6 0.00 0.00 0.00 93
20260506165259 63 120 1.7 1.7 0.00 0.00 0.00 94
20260506164756 63 101 1.7 2.6 0.00 0.00 0.00 94
20260506164252 63 88 1.7 2.6 0.00 0.00 0.00 93
20260506163749 64 88 1.7 2.6 0.00 0.00 0.00 93
20260506163244 64 66 0.9 3.5 0.00 0.00 0.00 94
20260506162740 64 122 2.6 3.5 0.00 0.00 0.00 95
20260506162238 63 124 1.7 2.6 0.00 0.00 0.00 96
20260506161735 62 110 1.7 2.6 0.00 0.00 0.00 97
20260506161232 62 113 1.7 2.6 0.00 0.00 0.00 97
20260506160730 61 85 1.7 1.7 0.00 0.00 0.00 97
20260506160226 61 117 1.7 1.7 0.00 0.00 0.00 97
20260506155725 62 110 1.7 2.6 0.00 0.00 0.00 97
20260506155221 62 103 2.6 2.6 0.00 0.00 0.00 96
20260506153329 62 102 1.7 2.6 0.00 0.00 0.00 96
20260506152826 62 69 1.7 2.6 0.00 0.00 0.00 96
20260506152323 62 78 0.0 1.7 0.00 0.00 0.00 96
20260506151822 62 86 0.9 2.6 0.00 0.00 0.00 95
20260506151318 61 66 1.7 2.6 0.00 0.00 0.00 95
20260506150815 62 125 1.7 2.6 0.00 0.00 0.00 95
20260506150312 62 57 1.7 2.6 0.00 0.00 0.00 95
20260506145809 62 114 1.7 4.3 0.00 0.00 0.00 94
20260506145306 62 87 0.9 2.6 0.00 0.00 0.00 94
20260506144803 62 110 1.7 2.6 0.00 0.00 0.00 93
20260506144259 62 100 1.7 1.7 0.00 0.00 0.00 92
20260506143758 62 84 0.9 1.7 0.00 0.00 0.00 92
20260506143254 62 95 1.7 1.7 0.00 0.00 0.00 92
20260506142753 62 83 1.7 1.7 0.00 0.00 0.00 92
20260506142250 62 53 1.7 2.6 0.00 0.00 0.00 91
20260506141749 62 115 1.7 1.7 0.00 0.00 0.00 91
20260506141246 62 89 0.9 1.7 0.00 0.00 0.00 91
20260506140744 63 96 1.7 1.7 0.00 0.00 0.00 91
20260506140241 63 89 0.9 1.7 0.00 0.00 0.00 90
20260506135738 63 81 0.9 1.7 0.00 0.00 0.00 89
20260506135234 63 51 0.9 1.7 0.00 0.00 0.00 89
20260506134731 63 80 0.9 1.7 0.00 0.00 0.00 89
20260506134227 63 98 1.7 1.7 0.00 0.00 0.00 89
20260506133724 63 89 0.9 1.7 0.00 0.00 0.00 89
20260506133221 63 88 0.9 1.7 0.00 0.00 0.00 88
20260506132718 63 93 1.7 1.7 0.00 0.00 0.00 88
20260506132215 63 64 1.7 2.6 0.00 0.00 0.00 87
20260506131713 63 97 1.7 1.7 0.00 0.00 0.00 87
20260506131209 64 104 1.7 2.6 0.00 0.00 0.00 86
20260506130706 64 77 0.0 1.7 0.00 0.00 0.00 86
20260506130203 64 91 1.7 2.6 0.00 0.00 0.00 87
20260506125701 63 95 1.7 1.7 0.00 0.00 0.00 87
20260506125158 63 100 1.7 2.6 0.00 0.00 0.00 87
20260506124656 63 53 0.9 2.6 0.00 0.00 0.00 88
20260506124154 63 98 0.9 1.7 0.00 0.00 0.00 88
20260506123651 63 93 0.9 1.7 0.00 0.00 0.00 88
20260506123150 63 101 1.7 1.7 0.00 0.00 0.00 88
20260506122646 63 86 1.7 1.7 0.00 0.00 0.00 88
20260506122144 63 100 1.7 2.6 0.00 0.00 0.00 89
20260506121641 63 89 1.7 2.6 0.00 0.00 0.00 89
20260506121137 62 88 1.7 1.7 0.00 0.00 0.00 89
20260506120636 63 99 1.7 2.6 0.00 0.00 0.00 90
20260506120132 63 124 2.6 2.6 0.00 0.00 0.00 89
20260506115631 63 83 1.7 1.7 0.00 0.00 0.00 89
20260506115129 63 105 1.7 3.5 0.00 0.00 0.00 89
20260506114626 63 95 1.7 2.6 0.00 0.00 0.00 89
20260506114124 63 95 1.7 2.6 0.00 0.00 0.00 90
20260506113622 63 86 2.6 2.6 0.00 0.00 0.00 90
20260506113119 63 103 0.9 2.6 0.00 0.00 0.00 90
20260506112615 62 93 1.7 2.6 0.00 0.00 0.00 90
20260506112113 62 100 1.7 1.7 0.00 0.00 0.00 91
20260506111610 62 72 1.7 1.7 0.00 0.00 0.00 91
20260506111107 62 111 1.7 1.7 0.00 0.00 0.00 91
20260506110605 62 103 1.7 3.5 0.00 0.00 0.00 91
20260506105558 62 99 1.7 2.6 0.00 0.00 0.00 90
20260506105055 62 96 1.7 2.6 0.00 0.00 0.00 90
20260506104554 62 109 1.7 2.6 0.00 0.00 0.00 90
20260506104051 62 108 2.6 3.5 0.00 0.00 0.00 91
20260506103548 62 97 1.7 1.7 0.00 0.00 0.00 91
20260506103045 62 108 1.7 1.7 0.00 0.00 0.00 92
20260506102543 62 111 0.0 1.7 0.00 0.00 0.00 92
20260506102040 62 100 1.7 1.7 0.00 0.00 0.00 92
20260506101537 61 75 1.7 1.7 0.00 0.00 0.00 92
20260506101034 61 69 1.7 2.6 0.00 0.00 0.00 92
20260506100532 62 63 1.7 2.6 0.00 0.00 0.00 92
20260506100030 62 77 1.7 1.7 0.00 0.00 0.00 92
20260506095529 61 110 2.6 2.6 0.00 0.00 0.00 92
20260506095024 62 87 0.9 1.7 0.00 0.00 0.00 92
20260506094522 62 91 2.6 2.6 0.00 0.00 0.00 92
20260506094020 62 84 1.7 2.6 0.00 0.00 0.00 92
20260506093518 62 107 1.7 1.7 0.00 0.00 0.00 92
20260506093015 62 56 1.7 1.7 0.00 0.00 0.00 92
20260506092513 62 118 1.7 2.6 0.00 0.00 0.00 92
20260506092009 62 79 1.7 1.7 0.00 0.00 0.00 91
20260506091508 62 77 1.7 2.6 0.00 0.00 0.00 91
20260506091004 62 72 0.0 2.6 0.00 0.00 0.00 91
20260506090503 62 84 0.9 1.7 0.00 0.00 0.00 91
20260506085958 62 115 1.7 4.3 0.00 0.00 0.00 91
20260506085455 62 108 2.6 2.6 0.00 0.00 0.00 91
20260506084952 62 84 1.7 1.7 0.00 0.00 0.00 91
20260506084449 62 75 1.7 2.6 0.00 0.00 0.00 91
20260506083945 62 121 1.7 1.7 0.00 0.00 0.00 91
20260506083443 62 112 1.7 2.6 0.00 0.00 0.00 91
20260506082940 62 127 0.9 2.6 0.00 0.00 0.00 90
20260506082437 62 95 0.9 2.6 0.00 0.00 0.00 90
20260506081932 62 118 2.6 2.6 0.00 0.00 0.00 90
20260506081431 62 132 1.7 3.5 0.00 0.00 0.00 90
20260506080928 62 115 1.7 2.6 0.00 0.00 0.00 92
20260506080425 62 68 1.7 2.6 0.00 0.00 0.00 92
20260506073409 62 96 0.9 1.7 0.00 0.00 0.00 91
20260506072906 62 93 0.9 1.7 0.00 0.00 0.00 91
20260506072403 62 92 0.9 1.7 0.00 0.00 0.00 91
20260506071900 62 95 1.7 1.7 0.00 0.00 0.00 91
20260506071359 62 89 0.9 1.7 0.00 0.00 0.00 91
20260506070855 62 89 0.9 1.7 0.00 0.00 0.00 91